Location: Liberec
(50.7830°N, 15.0500°E)
Time: 05:49:02
(UTC+02:00)

ISS - Pass Details

Date: 19 May 2021
Orbit: 417 x 422 km, 51.6° (Epoch: 13 June)

Event Time Altitude Azimuth Distance (km) Brightness Sun altitude
Rises 23:42:34 0° 277° (W) 2,367 0.4 -17.4°
Reaches altitude 10° 23:44:40 10° 279° (W) 1,503 -0.6 -17.5°
Maximum altitude 23:48:03 78° 6° (N) 435 -3.7 -17.7°
Enters shadow 23:50:11 21° 91° (E) 1,011 -2.0 -17.8°
